User: anonymous   Login
Location: Asheville, NC
(35.6000°N, 82.5500°W)
Time: 15:51:34
(UTC-05:00)
Language:

FALCONSAT 3 - Orbit

View from above orbital plane
View from above orbital plane
View from above satellite
View from above satellite

Ground track
Ground track

The orbit data is extracted from the following two-line orbital elements,

1 30776U 07006E   18015.79879032  .00002693  00000-0  82062-4 0  9998
2 30776 035.4350 156.3125 0002301 087.5606 272.5383 15.33757051600908
Epoch (UTC): 15 January 2018 19:10:15
Eccentricity: 0.0002301
inclination: 35.4350°
perigee height: 463 km
apogee height: 466 km
right ascension of ascending node: 156.3125°
argument of perigee: 87.5606°
revolutions per day: 15.33757051
mean anomaly at epoch: 272.5383°
orbit number at epoch: 60090

The dashed part of the orbit path shows where the satellite is in the earth's shadow,  

DLR